This is the latest recevied weather packets stored in our database for station/object KC3ELT-10. If no packets are shown the sender has not sent any weather packets the latest 10 day(s).
| Time | Temp. | Humidity | Pressure | Rain* | Wind** | Luminosity | Snow |
|---|---|---|---|---|---|---|---|
| 1777895279 | 7.78° C | 58% | 1008.3 hPa | 0 mm | 1.34 m/s, 181° | - | - |
| 1777894979 | 7.78° C | 58% | 1008.3 hPa | 0 mm | 0.89 m/s, 216° | - | - |
| 1777894679 | 7.78° C | 58% | 1008.3 hPa | 0 mm | 1.34 m/s, 174° | - | - |
| 1777894379 | 7.78° C | 59% | 1008.3 hPa | 0 mm | 0.89 m/s, 173° | - | - |
| 1777894079 | 7.22° C | 59% | 1008.3 hPa | 0 mm | 0.45 m/s, 198° | - | - |
| 1777893779 | 7.22° C | 57% | 1008.3 hPa | 0 mm | 1.34 m/s, 215° | - | - |
| 1777893479 | 7.22° C | 57% | 1008.3 hPa | 0 mm | 1.79 m/s, 201° | - | - |
| 1777893179 | 7.22° C | 57% | 1008.2 hPa | 0 mm | 1.34 m/s, 178° | - | - |
| 1777892879 | 7.22° C | 57% | 1008.2 hPa | 0 mm | 0.45 m/s, 162° | - | - |
| 1777892579 | 7.22° C | 57% | 1008.2 hPa | 0 mm | 1.34 m/s, 174° | - | - |
| 1777892279 | 7.22° C | 56% | 1008.2 hPa | 0 mm | 0.45 m/s, 187° | - | - |
| 1777891979 | 7.22° C | 56% | 1008.2 hPa | 0 mm | 0.45 m/s, 221° | - | - |
| 1777891679 | 7.22° C | 56% | 1008.2 hPa | 0 mm | 0.89 m/s, 181° | - | - |
| 1777891379 | 7.78° C | 55% | 1009.4 hPa | 0 mm | 1.34 m/s, 199° | - | - |
| 1777891079 | 7.78° C | 54% | 1009.4 hPa | 0 mm | 0.89 m/s, 215° | - | - |
| 1777890779 | 7.78° C | 54% | 1009.4 hPa | 0 mm | 0.89 m/s, 193° | - | - |
| 1777890479 | 7.78° C | 54% | 1008.1 hPa | 0 mm | 0 m/s | - | - |
| 1777890179 | 8.33° C | 53% | 1008.1 hPa | 0 mm | 0.89 m/s, 199° | - | - |
| 1777889879 | 8.33° C | 53% | 1008.1 hPa | 0 mm | 0.89 m/s, 219° | - | - |
| 1777889579 | 7.78° C | 54% | 1008.2 hPa | 0 mm | 1.34 m/s, 194° | - | - |
| 1777889279 | 7.78° C | 53% | 1008.2 hPa | 0 mm | 0.89 m/s, 227° | - | - |
| 1777888979 | 7.78° C | 54% | 1008.2 hPa | 0 mm | 0.89 m/s, 206° | - | - |
| 1777888679 | 7.78° C | 54% | 1008 hPa | 0 mm | 1.34 m/s, 205° | - | - |
| 1777888379 | 7.78° C | 54% | 1008 hPa | 0 mm | 1.34 m/s, 224° | - | - |
| 1777888079 | 7.78° C | 54% | 1008 hPa | 0 mm | 0.45 m/s, 194° | - | - |
* Rain latest hour (hover to see other rain measurements)
** Current wind speed in m/s (hover to see current wind gust speed)